• en Suisse
  • Liste des pays
  • À 7 jours
  • Température de l'eau
  • Carte satellitaire
  • Carte météo
  • Widgets météo
  • user-avatar
    Se connecter

    Météo par heure à Sotnicyno

    Ce jour, 25 Septembre, Mardi

    Heure Température Précipitation Vent Pression Humidité
    00:00 +10°C° 0.6 mm 7 m/s 744 mmHg 77%
    01:00 +10°C° 0.4 mm 7 m/s 744 mmHg 79%
    02:00 +10°C° 0.4 mm 7 m/s 743 mmHg 81%
    03:00 +10°C° 0 mm 6 m/s 742 mmHg 86%
    04:00 +10°C° 0.6 mm 6 m/s 742 mmHg 86%
    05:00 +10°C° 0.6 mm 6 m/s 742 mmHg 86%
    06:00 +10°C° 0.6 mm 6 m/s 741 mmHg 87%
    07:00 +10°C° 0.3 mm 6 m/s 742 mmHg 85%
    08:00 +10°C° 0.3 mm 6 m/s 742 mmHg 83%
    09:00 +10°C° 0 mm 5 m/s 741 mmHg 81%
    10:00 +10°C° 0 mm 6 m/s 741 mmHg 77%
    11:00 +10°C° 0 mm 6 m/s 742 mmHg 72%
    12:00 +11°C° 0 mm 6 m/s 742 mmHg 68%
    13:00 +11°C° 0 mm 6 m/s 743 mmHg 67%
    14:00 +11°C° 0 mm 6 m/s 743 mmHg 65%
    15:00 +11°C° 0 mm 6 m/s 744 mmHg 64%
    16:00 +10°C° 0 mm 6 m/s 744 mmHg 66%
    17:00 +9°C° 0 mm 6 m/s 745 mmHg 68%
    18:00 +9°C° 0 mm 5 m/s 745 mmHg 70%
    19:00 +8°C° 0 mm 5 m/s 746 mmHg 72%
    20:00 +8°C° 0 mm 5 m/s 746 mmHg 73%
    21:00 +8°C° 0 mm 5 m/s 747 mmHg 74%
    22:00 +7°C° 0 mm 5 m/s 748 mmHg 75%
    23:00 +7°C° 0 mm 5 m/s 748 mmHg 76%

    Demain, 26 Septembre, Mercredi

    Heure Température Précipitation Vent Pression Humidité
    00:00 +7°C° 0 mm 5 m/s 749 mmHg 77%
    01:00 +7°C° 0 mm 5 m/s 749 mmHg 78%
    02:00 +7°C° 0 mm 5 m/s 750 mmHg 78%
    03:00 +6°C° 0 mm 5 m/s 750 mmHg 79%
    04:00 +6°C° 0 mm 5 m/s 751 mmHg 81%
    05:00 +6°C° 0 mm 4 m/s 752 mmHg 83%
    06:00 +5°C° 0 mm 4 m/s 752 mmHg 84%
    07:00 +5°C° 0 mm 4 m/s 753 mmHg 81%
    08:00 +6°C° 0 mm 4 m/s 754 mmHg 78%
    09:00 +6°C° 0 mm 5 m/s 754 mmHg 75%
    10:00 +7°C° 0 mm 4 m/s 755 mmHg 71%
    11:00 +8°C° 0 mm 4 m/s 755 mmHg 67%
    12:00 +8°C° 0 mm 4 m/s 756 mmHg 64%
    13:00 +8°C° 0 mm 4 m/s 756 mmHg 61%
    14:00 +10°C° 0 mm 4 m/s 756 mmHg 59%
    15:00 +10°C° 0 mm 4 m/s 756 mmHg 56%
    16:00 +9°C° 0 mm 3 m/s 756 mmHg 58%
    17:00 +9°C° 0 mm 3 m/s 756 mmHg 60%
    18:00 +8°C° 0 mm 2 m/s 756 mmHg 62%
    19:00 +7°C° 0 mm 2 m/s 756 mmHg 64%
    20:00 +5°C° 0 mm 3 m/s 756 mmHg 67%
    21:00 +4°C° 0 mm 3 m/s 756 mmHg 70%
    22:00 +4°C° 0 mm 3 m/s 756 mmHg 69%
    23:00 +4°C° 0 mm 4 m/s 755 mmHg 69%

    Après-demain, 27 Septembre, Jeudi

    Heure Température Précipitation Vent Pression Humidité
    00:00 +4°C° 0 mm 4 m/s 755 mmHg 69%
    01:00 +3°C° 0 mm 5 m/s 754 mmHg 68%
    02:00 +5°C° 0 mm 5 m/s 753 mmHg 67%
    03:00 +4°C° 0 mm 6 m/s 753 mmHg 67%
    04:00 +4°C° 0 mm 6 m/s 752 mmHg 66%
    05:00 +4°C° 0 mm 7 m/s 751 mmHg 65%
    06:00 +5°C° 0 mm 7 m/s 749 mmHg 64%
    07:00 +5°C° 0.9 mm 8 m/s 749 mmHg 69%
    08:00 +3°C° 0.9 mm 9 m/s 748 mmHg 73%
    09:00 +3°C° 0.9 mm 9 m/s 747 mmHg 77%
    10:00 +3°C° 1.6 mm 9 m/s 746 mmHg 79%
    11:00 +3°C° 1.6 mm 9 m/s 745 mmHg 82%
    12:00 +5°C° 1.6 mm 9 m/s 745 mmHg 84%
    13:00 +5°C° 1 mm 8 m/s 744 mmHg 85%
    14:00 +6°C° 1 mm 8 m/s 744 mmHg 86%
    15:00 +6°C° 1 mm 7 m/s 744 mmHg 87%
    16:00 +6°C° 0.6 mm 7 m/s 744 mmHg 86%
    17:00 +8°C° 0.6 mm 7 m/s 744 mmHg 85%
    18:00 +8°C° 0.6 mm 6 m/s 744 mmHg 84%
    19:00 +7°C° 0.2 mm 6 m/s 744 mmHg 83%
    20:00 +7°C° 0.2 mm 5 m/s 745 mmHg 83%
    21:00 +6°C° 0.2 mm 4 m/s 745 mmHg 83%
    22:00 +6°C° 0 mm 4 m/s 746 mmHg 83%
    23:00 +5°C° 0 mm 4 m/s 746 mmHg 84%

    28 Septembre, Vendredi

    Heure Température Précipitation Vent Pression Humidité
    00:00 +5°C° 0 mm 4 m/s 746 mmHg 84%
    01:00 +5°C° 0 mm 4 m/s 747 mmHg 85%
    02:00 +5°C° 0 mm 4 m/s 747 mmHg 86%
    03:00 +4°C° 0 mm 4 m/s 748 mmHg 87%
    04:00 +4°C° 0 mm 4 m/s 748 mmHg 88%
    05:00 +4°C° 0 mm 4 m/s 748 mmHg 89%
    06:00 +4°C° 0 mm 4 m/s 748 mmHg 90%
    07:00 +5°C° 0 mm 5 m/s 748 mmHg 85%
    08:00 +6°C° 0 mm 5 m/s 748 mmHg 80%
    09:00 +7°C° 0 mm 5 m/s 749 mmHg 75%
    10:00 +9°C° 0 mm 6 m/s 748 mmHg 68%
    11:00 +10°C° 0 mm 6 m/s 748 mmHg 61%
    12:00 +11°C° 0 mm 7 m/s 747 mmHg 55%
    13:00 +12°C° 0 mm 7 m/s 746 mmHg 54%
    14:00 +13°C° 0 mm 8 m/s 745 mmHg 54%
    15:00 +13°C° 0 mm 9 m/s 745 mmHg 54%
    16:00 +13°C° 0.2 mm 9 m/s 744 mmHg 60%
    17:00 +13°C° 0.2 mm 8 m/s 743 mmHg 66%
    18:00 +12°C° 0.2 mm 8 m/s 742 mmHg 72%
    19:00 +13°C° 0.3 mm 8 m/s 742 mmHg 75%
    20:00 +13°C° 0.3 mm 9 m/s 742 mmHg 77%
    21:00 +13°C° 0.3 mm 9 m/s 741 mmHg 80%
    22:00 +12°C° 0.5 mm 8 m/s 742 mmHg 80%
    23:00 +10°C° 0.5 mm 8 m/s 743 mmHg 80%

    29 Septembre, Samedi

    Heure Température Précipitation Vent Pression Humidité
    00:00 +9°C° 0.5 mm 7 m/s 744 mmHg 80%
    01:00 +7°C° 0 mm 6 m/s 746 mmHg 81%
    02:00 +5°C° 0 mm 5 m/s 747 mmHg 82%
    03:00 +4°C° 0 mm 4 m/s 748 mmHg 83%
    04:00 +3°C° 0 mm 4 m/s 749 mmHg 84%
    05:00 +2°C° 0 mm 3 m/s 750 mmHg 84%
    06:00 +2°C° 0 mm 3 m/s 751 mmHg 84%
    07:00 +3°C° 0 mm 3 m/s 752 mmHg 78%
    08:00 +4°C° 0 mm 3 m/s 753 mmHg 72%
    09:00 +5°C° 0 mm 3 m/s 753 mmHg 66%
    10:00 +7°C° 0 mm 3 m/s 754 mmHg 60%
    11:00 +8°C° 0 mm 3 m/s 754 mmHg 54%
    12:00 +9°C° 0 mm 3 m/s 754 mmHg 48%
    13:00 +10°C° 0 mm 3 m/s 754 mmHg 47%
    14:00 +10°C° 0 mm 3 m/s 754 mmHg 47%
    15:00 +10°C° 0 mm 3 m/s 754 mmHg 46%
    16:00 +9°C° 0 mm 2 m/s 755 mmHg 50%
    17:00 +8°C° 0 mm 2 m/s 755 mmHg 54%
    18:00 +8°C° 0 mm 1 m/s 755 mmHg 58%
    19:00 +8°C° 0 mm 1 m/s 756 mmHg 60%
    20:00 +6°C° 0 mm 2 m/s 756 mmHg 61%
    21:00 +6°C° 0 mm 2 m/s 757 mmHg 62%
    22:00 +5°C° 0 mm 2 m/s 757 mmHg 63%
    23:00 +4°C° 0 mm 2 m/s 758 mmHg 64%

    30 Septembre, Dimanche

    Heure Température Précipitation Vent Pression Humidité
    00:00 +3°C° 0 mm 2 m/s 758 mmHg 65%
    01:00 +3°C° 0 mm 2 m/s 758 mmHg 67%
    02:00 +3°C° 0 mm 1 m/s 759 mmHg 68%
    03:00 +3°C° 0 mm 1 m/s 759 mmHg 69%
    04:00 +2°C° 0 mm 1 m/s 759 mmHg 70%
    05:00 +2°C° 0 mm 1 m/s 760 mmHg 72%
    06:00 +1°C° 0 mm 1 m/s 760 mmHg 74%
    07:00 +3°C° 0 mm 1 m/s 760 mmHg 68%
    08:00 +4°C° 0 mm 1 m/s 761 mmHg 63%
    09:00 +6°C° 0 mm 1 m/s 761 mmHg 57%
    10:00 +7°C° 0 mm 1 m/s 761 mmHg 51%
    11:00 +7°C° 0 mm 2 m/s 761 mmHg 45%
    12:00 +8°C° 0 mm 2 m/s 761 mmHg 39%
    13:00 +9°C° 0 mm 2 m/s 761 mmHg 38%
    14:00 +9°C° 0 mm 3 m/s 760 mmHg 38%
    15:00 +9°C° 0 mm 3 m/s 760 mmHg 37%
    16:00 +8°C° 0 mm 2 m/s 760 mmHg 42%
    17:00 +7°C° 0 mm 2 m/s 760 mmHg 47%
    18:00 +5°C° 0 mm 2 m/s 760 mmHg 53%
    19:00 +5°C° 0 mm 2 m/s 760 mmHg 55%
    20:00 +4°C° 0 mm 2 m/s 760 mmHg 58%
    21:00 +4°C° 0 mm 2 m/s 760 mmHg 61%
    22:00 +4°C° 0 mm 2 m/s 760 mmHg 63%
    23:00 +3°C° 0 mm 2 m/s 760 mmHg 66%
    Voir plus